Tracking 27112 objects as of 26-Mar-2023
HD Live streaming from Space Station
objects crossing your sky now

STARLINK-1803

Track STARLINK-1803 now!
10-day predictions
STARLINK-1803 is classified as:


NORAD ID: 46703
Int'l Code: 2020-073AK
Perigee: 553.7 km
Apogee: 555.3 km
Inclination: 53.1 °
Period: 95.6 minutes
Semi major axis: 6925 km
RCS: Unknown
Launch date: October 18, 2020
Source: United States (US)
Launch site: AIR FORCE EASTERN TEST RANGE (AFETR)
Your satellite tracking list
Your tracking list is empty




NASA's NSSDC Master Catalog

Two Line Element Set (TLE):
1 46703U 20073AK  23085.20805312  .00005050  00000-0  35809-3 0  9999
2 46703  53.0557  47.6030 0001148 121.1409 238.9692 15.06358739134902
Source of the keplerian elements: AFSPC